Diyarbakir, Turkey

5:21 PM EEST on July 24, 2016 (GMT +0300)
Diyarbakir

Weather History for LTCC - July, 2013

Change the Weather History Date:

Sunday, July 7, 2013

  Actual Average Record
Temperature  
Mean Temperature 87 °F -  
Max Temperature 104 °F 101 °F 105 °F (2000)
Min Temperature 70 °F 71 °F 66 °F (1997)
Cooling Degree Days 22    
Growing Degree Days 37 (Base 50)    
Moisture  
Dew Point 33 °F    
Average Humidity 14    
Maximum Humidity 27    
Minimum Humidity 4    
Precipitation  
Precipitation 0.00 in 0.00 in - ()
Sea Level Pressure  
Sea Level Pressure 29.75 in    
Wind  
Wind Speed 7 mph ()    
Max Wind Speed 12 mph    
Max Gust Speed -    
Visibility 10.5 miles    
Events      
Averages and records for this station are not official NWS values.
T = Trace of Precipitation, MM = Missing Value Source: Averaged Metar Reports

Daily Weather History Graph

Daily Weather History Graph

Search for Another Location

Airport or City:

Trip Planner

Search our weather history database for the weather conditions in past years. The results will help you decide how hot, cold, wet, or windy it might be!

Date:

Astronomy

Jul. 07, 2013 Rise Set
Actual Time 5:03 AM EEST 7:44 PM EEST
Civil Twilight 4:32 AM EEST 8:15 PM EEST
Nautical Twilight 3:54 AM EEST 8:53 PM EEST
Astronomical Twilight 3:10 AM EEST 9:37 PM EEST
Moon 4:20 AM EEST (7/7) 6:54 PM EEST (7/7)
Length of Visible Light 15h 42m
Length of Day
14h 40m
Waning Crescent, 1% of the Moon is Illuminated
Jul 7
Waning Crescent
Jul 8
New
Jul 16
First Quarter
Jul 22
Full
Jul 29
Last Quarter

Hourly Weather History & Observations

Time (EEST) Temp. Dew Point Humidity Pressure Visibility Wind Dir Wind Speed Gust Speed Precip Events Conditions
12:20 AM 78.8 °F 28.4 °F 16% 29.71 in - West 11.5 mph - N/A   Clear
12:50 AM 78.8 °F 28.4 °F 16% 29.71 in - West 8.1 mph - N/A   Clear
1:20 AM 77.0 °F 28.4 °F 17% 29.71 in - West 9.2 mph - N/A   Clear
1:50 AM 75.2 °F 30.2 °F 19% 29.71 in - WNW 6.9 mph - N/A   Clear
2:20 AM 71.6 °F 30.2 °F 22% 29.71 in - WNW 5.8 mph - N/A   Clear
2:50 AM 75.2 °F 28.4 °F 18% 29.74 in - West 6.9 mph - N/A   Clear
3:00 AM 75 °F 28 °F 9% 29.56 in 6 mi West 6.9 mph - -  
3:20 AM 75.2 °F 30.2 °F 19% 29.74 in - WSW 5.8 mph - N/A   Clear
3:50 AM 77.0 °F 32.0 °F 19% 29.74 in - SW 5.8 mph - N/A   Clear
4:20 AM 73.4 °F 33.8 °F 23% 29.74 in - West 10.4 mph - N/A   Clear
4:50 AM 71.6 °F 35.6 °F 27% 29.74 in - WNW 8.1 mph - N/A   Clear
5:20 AM 71.6 °F 33.8 °F 25% 29.74 in - West 6.9 mph - N/A   Clear
5:50 AM 73.4 °F 33.8 °F 23% 29.77 in - West 5.8 mph - N/A   Clear
6:20 AM 80.6 °F 37.4 °F 21% 29.77 in - WNW 6.9 mph - N/A   Clear
6:50 AM 84.2 °F 37.4 °F 19% 29.77 in - WNW 9.2 mph - N/A   Clear
7:20 AM 86.0 °F 39.2 °F 19% 29.77 in - WNW 10.4 mph - N/A   Clear
7:50 AM 87.8 °F 39.2 °F 18% 29.80 in - NW 9.2 mph - N/A   Clear
8:20 AM 89.6 °F 37.4 °F 16% 29.80 in - NNW 5.8 mph - N/A   Clear
8:50 AM 91.4 °F 39.2 °F 16% 29.80 in - North 9.2 mph - N/A   Clear
9:00 AM 91 °F 36 °F 7% 29.62 in 12 mi North 9.2 mph - -  
9:20 AM 91.4 °F 39.2 °F 16% 29.80 in - NNW 10.4 mph - N/A   Clear
9:50 AM 93.2 °F 39.2 °F 15% 29.80 in - Variable 6.9 mph - N/A   Clear
10:20 AM 95.0 °F 37.4 °F 13% 29.80 in - NNW 6.9 mph - N/A   Clear
10:50 AM 96.8 °F 39.2 °F 14% 29.80 in - Variable 4.6 mph - N/A   Clear
11:20 AM 96.8 °F 37.4 °F 13% 29.80 in - East 8.1 mph - N/A   Clear
11:50 AM 98.6 °F 35.6 °F 11% 29.80 in - ESE 6.9 mph - N/A   Clear
12:20 PM 98.6 °F 28.4 °F 8% 29.80 in - SE 8.1 mph - N/A   Clear
12:50 PM 100.4 °F 32.0 °F 9% 29.77 in - NE 6.9 mph - N/A   Clear
1:20 PM 100.4 °F 32.0 °F 9% 29.77 in - Variable 4.6 mph - N/A   Clear
1:50 PM 100.4 °F 32.0 °F 9% 29.77 in - ENE 8.1 mph - N/A   Clear
2:20 PM 100.4 °F 32.0 °F 9% 29.77 in - NE 9.2 mph - N/A   Clear
2:50 PM 100.4 °F 33.8 °F 10% 29.77 in - Variable 6.9 mph - N/A   Clear
3:00 PM 101 °F 32 °F 4% 29.60 in 12 mi ENE 6.9 mph - -  
3:20 PM 102.2 °F 30.2 °F 8% 29.74 in - NNE 8.1 mph - N/A   Clear
3:50 PM 102.2 °F 30.2 °F 8% 29.74 in - NNE 6.9 mph - N/A   Clear
4:20 PM 102.2 °F 30.2 °F 8% 29.74 in - Variable 6.9 mph - N/A   Clear
4:50 PM 102.2 °F 30.2 °F 8% 29.74 in - SSE 6.9 mph - N/A   Clear
5:20 PM 102.2 °F 30.2 °F 8% 29.74 in - ESE 3.5 mph - N/A   Clear
5:50 PM 100.4 °F 33.8 °F 10% 29.74 in - SE 11.5 mph - N/A   Clear
6:20 PM 100.4 °F 33.8 °F 10% 29.74 in - ESE 5.8 mph - N/A   Clear
6:50 PM 98.6 °F 32.0 °F 10% 29.74 in - East 2.3 mph - N/A   Clear
7:20 PM 96.8 °F 30.2 °F 10% 29.74 in - WNW 4.6 mph - N/A   Clear
7:50 PM 93.2 °F 28.4 °F 10% 29.77 in - Variable 1.2 mph - N/A   Clear
8:20 PM 89.6 °F 30.2 °F 12% 29.77 in - NW 6.9 mph - N/A   Clear
8:50 PM 87.8 °F 32.0 °F 14% 29.77 in - WNW 6.9 mph - N/A   Clear
9:00 PM 88 °F 31 °F 6% 29.61 in 12 mi WNW 6.9 mph - -  
9:20 PM 86.0 °F 30.2 °F 13% 29.80 in - West 6.9 mph - N/A   Clear
9:50 PM 86.0 °F 30.2 °F 13% 29.80 in - WNW 8.1 mph - N/A   Clear
10:20 PM 82.4 °F 30.2 °F 15% 29.80 in - WNW 8.1 mph - N/A   Clear
10:50 PM 86.0 °F 28.4 °F 12% 29.80 in - WNW 10.4 mph - N/A   Clear
11:20 PM 80.6 °F 30.2 °F 16% 29.80 in - WNW 8.1 mph - N/A   Clear
11:50 PM 82.4 °F 30.2 °F 15% 29.80 in - WNW 9.2 mph - N/A   Clear